NOAA 16 DEB, 41046

Orbit data source: Space-Track

NOAA 16 DEB, 41046 is space debris in SSO originally from a launch on Thu, 21 Sep 2000 UTC launched from the Air Force Western Test Range (AFWTR). Debris objects in space refer to the collection of defunct objects orbiting the Earth. Examples of debris include non-operational satellites, rocket bodies, and fragments generated from explosions, collisions, or faulty payload assembly.

Loading next visibility...
Identifier
41046, 2000-055D
Orbit
SSO
Country
Flag of USUS
Related business
Manufacturer
Unknown
Mission
Spacecraft
Bus & Motor
Unknown
Mass
Unknown
Launch date (UTC)
2000-09-21 (25 years ago)
Launch vehicle
Unknown
Launch site
Air Force Western Test Range (AFWTR)
Object type
Payload
Rocket body
Debris
Shape & HBR
Unknown shape, 0.1 m
Radar Cross Section
Small (<0.1 m²)

Expand to show TLE details & history
Last TLE update: 15 hours ago

TLE from 15 hours ago
0 NOAA 16 DEB
1 41046U 00055D   25296.64547860  .00001173  00000-0  58740-3 0  9998
2 41046  98.6444   2.6348 0011798 279.4476  80.5366 14.18554186511941
Epoch: 2025-10-23T15:29Z
TLE epoch observation values (Epoch: 2025-10-23T15:29:29.351Z)
Latitude
-0.00001°
Longitude
97.96075°
Altitude
831.772 km
Speed
7.438 km/s
True Right ascension
00h 10m 32s
True Declination
0° 00' 00"
Sunlit
Object was in full shadow at epoch
Visualization orbit readout
Latitude
Unknown
Longitude
Unknown
Altitude
Unknown
Speed
Unknown
Apparent Right ascension
Unknown
Apparent Declination
Unknown
Sunlit
N/A
Visualization observer readout
Local Sidereal Time
02:02:33
Azimuth
Unknown
Elevation
Unknown
Doppler factor
Unknown
Orbital elements
Apogee altitude
835.905 km
Perigee altitude
818.903 km
Semi-major axis
7,205.541 km
Eccentricity
0.00118
Inclination
98.6444°
RAAN
2.6348°
Arg. of periapsis
279.4476°
True anomaly
80.66999°
Mean anomaly
80.5366°
Eccentric anomaly
80.60329°
Mean motion
3.54849 °/min
Orbital period
101.45 mins
BSTAR
0.0005874
Loading maneuver chart data...
Computing Atmospheric mass density...
Loading historical data...
Loading historical data...
Loading historical data...
Loading historical data...
Loading historical data...
Loading historical data...
Loading historical data...

Documentation

Showing up to 5 results
|